SCP
0 0 0 0 0 0 0 0 0 0 0 0 0 0 0 0 0 0 0 0 0 0 0 0 0 0 0 0 0 0 0 0 0 0 0 0 0 0 0 0 0 0 0
0 0 0 0 0 0 0 0 0 0 0 0 0 0 0 0 0 0 0 0 0 0 0 0 0 0 0 0 0 0 0 0 0 0 0 0 0 0 0 0 0 0 0
0 0 0 0 0 0 0 0 0 0 0 0 0 0 0 0 0 0 0 0 0 0 0 0 0 0 0 0 0 0 0 0 0 0 0 0 0 0 0 0 0 0 0
0 0 0 0 0 0 0 0 0 0 0 0 0 0 0 0 0 0 0 0 0 0 0 0 0 0 0 0 0 0 0 0 0 0 0 0 0 0 0 0 0 0 0
0 0 0 0 0 0 0 0 0 0 0 0 0 0 0 0 0 0 0 0 0 0 0 0 0 0 0 0 0 0 0 0 0 0 0 0 0 0 0 0 0 0 0
0 0 0 0 0 0 0 0 0 0 0 0 0 0 0 0 0 0 0 0 0 0 0 0 0 0 0 0 0 0 0 0 0 0 0 0 0 0 0 0 0 0 0
0 0 0 0 0 0 0 0 0 0 0 0 0 0 0 0 0 0 0 0 0 0 0 0 0 0 0 0 0 0 0 0 0 0 0 0 0 0 0 0 0 0 0
0 0 0 0 0 0 0 0 0 0 0 0 0 0 0 0 0 0 0 0 0 0 0 0 0 0 0 0 0 0 0 0 0 0 0 0 0 0 0 0 0 0 0
0 0 0 0 0 0 0 0 0 0 0 0 0 0 0 0 0 0 0 0 0 0 0 0 0 0 0 0 0 0 0 0 0 0 0 0 0 0 0 0 0 0 0
0 0 0 0 0 0 0 0 0 0 0 0 0 0 0 0 0 0 0 0 0 0 0 0 0 0 0 0 0 0 0 0 0 0 0 0 0 0 0 0 0 0 0
0 0 0 0 0 0 0 0 0 0 0 0 0 0 0 0 0 0 0 0 0 0 0 0 0 0 0 0 0 0 0 0 0 0 0 0 0 0 0 0 0 0 0
0 0 0 0 0 0 0 0 0 0 0 0 0 0 0 0 0 0 0 0 0 0 0 0 0 0 0 0 0 0 0 0 0 0 0 0 0 0 0 0 0 0 0
0 0 0 0 0 0 0 0 0 0 0 0 0 0 0 0 0 0 0 0 0 0 0 0 0 0 0 0 0 0 0 0 0 0 0 0 0 0 0 0 0 0 0
0 0 0 0 0 0 0 0 0 0 0 0 0 0 0 0 0 0 0 0 0 0 0 0 0 0 0 0 0 0 0 0 0 0 0 0 0 0 0 0 0 0 0
0 0 0 0 0 0 0 0 0 0 0 0 0 0 0 0 0 0 0 0 0 0 0 0 0 0 0 0 0 0 0 0 0 0 0 0 0 0 0 0 0 0 0
0 0 0 0 0 0 0 0 0 0 0 0 0 0 0 0 0 0 0 0 0 0 0 0 0 0 0 0 0 0 0 0 0 0 0 0 0 0 0 0 0 0 0
0 0 0 0 0 0 0 0 0 0 0 0 0 0 0 0 0 0 0 0 0 0 0 0 0 0 0 0 0 0 0 0 0 0 0 0 0 0 0 0 0 0 0
0 0 0 0 0 0 0 0 0 0 0 0 0 0 0 0 0 0 0 0 0 0 0 0 0 0 0 0 0 0 0 0 0 0 0 0 0 0 0 0 0 0 0
0 0 0 0 0 0 0 0 0 0 0 0 0 0 0 0 0 0 0 0 0 0 0 0 0 0 0 0 0 0 0 0 0 0 0 0 0 0 0 0 0 0 0
0 0 0 0 0 0 0 0 0 0 0 0 0 0 0 0 0 0 0 0 0 0 0 0 0 0 0 0 0 0 0 0 0 0 0 0 0 0 0 0 0 0 0
0 0 0 0 0 -0 -0 0 0 0 0 0 0 0 0 0 0 0 0 0 0 0 0 0 0 0 0 0 0 0 0 0 0 0 0 0 0 0 0 0 0 0 0
0 0 0 0 0 0 0 0 -0 0 0 0 0 0 0 0 0 0 0 0 0 0 0 0 0 0 0 0 0 0 0 0 0 0 0 0 0 0 0 0 0 0 0
0 0 0 0 0 0 0 0 -0 0 0 0 0 0 0 0 0 0 0 0 0 0 0 0 0 0 0 0 0 0 0 0 0 0 0 0 0 0 0 0 0 0 0
0 0 0 0 0 0 0 0 0 0 0 0 0 0 0 0 0 0 0 0 0 0 0 0 0 0 0 0 0 0 0 0 0 0 0 0 0 0 0 0 0 0 0
0 0 0 0 0 0 0 0 0 0 0 0 0 0 0 0 0 0 0 0 0 0 0 0 0 0 0 0 0 0 0 0 0 0 0 0 0 0 0 0 0 0 0
0 0 0 0 0 0 0 0 0 0 0 0 0 0 0 0 0 0 0 0 0 0 0 0 0 0 0 0 0 0 0 0 0 0 0 0 0 0 0 0 0 0 0
Wind_Speed
7 7 7 7 8 8 8 7 7 7 6 4 4 3 3 3 2 2 3 3 3 3 3 2 2 2 2 3 3 2 3 3 3 3 2 2 2 2 2 2 2 2 2
8 8 8 8 8 8 8 7 7 6 6 5 4 4 4 3 3 2 3 3 4 4 3 3 2 2 3 3 3 3 2 2 3 3 3 3 3 3 2 2 2 2 2
7 8 8 9 9 9 9 7 7 6 6 6 4 4 3 2 2 3 3 3 4 4 4 4 3 3 3 3 4 4 4 3 3 4 4 4 4 2 3 4 3 3 2
6 7 8 8 9 9 8 8 7 7 6 6 5 5 4 4 4 4 4 4 4 4 4 4 4 3 3 4 4 4 4 4 4 3 4 3 2 3 3 4 4 3 3
6 7 7 8 8 8 8 8 8 7 7 6 6 5 5 5 4 4 5 4 4 4 4 4 4 4 3 4 4 4 4 4 4 4 3 4 3 4 4 4 4 3 3
6 6 7 7 8 8 8 8 8 8 7 7 7 6 7 7 6 6 5 4 4 4 4 4 4 4 4 4 5 5 5 5 5 4 4 4 4 5 5 4 4 4 3
6 7 7 8 8 9 9 8 9 8 8 8 7 7 7 7 7 6 5 5 4 4 5 5 5 5 4 5 4 5 5 5 6 5 5 5 5 4 4 5 4 3 2
6 7 7 7 8 8 9 9 9 9 8 8 8 7 7 5 5 6 6 5 5 5 6 6 6 6 5 5 5 4 5 5 5 6 6 5 4 4 4 4 4 3 3
7 7 7 7 7 8 8 8 9 9 9 8 8 8 7 7 7 7 6 5 5 5 7 6 6 6 6 5 5 5 5 5 5 5 6 5 4 4 4 4 5 5 5
7 7 6 7 7 7 7 8 8 8 8 8 8 7 8 8 7 7 7 7 7 6 7 6 6 6 6 6 6 5 6 6 5 4 6 6 5 5 4 4 4 5 5
7 6 6 6 7 7 8 8 8 8 8 8 8 8 7 8 8 7 7 7 7 7 7 7 6 6 7 6 6 6 6 7 6 6 6 6 6 5 4 4 5 5 4
7 6 6 6 7 8 8 8 8 8 8 8 8 8 8 7 8 8 8 8 7 7 7 7 6 6 6 6 7 7 7 7 7 7 7 7 5 6 5 4 5 5 5
7 7 6 6 7 8 8 8 8 8 9 8 8 8 8 8 8 9 8 8 7 7 7 7 6 6 6 6 7 7 7 8 8 7 7 7 7 7 5 5 5 4 5
7 7 7 7 7 8 8 9 9 9 9 8 8 8 9 9 9 9 8 8 7 7 7 7 6 6 6 6 6 6 6 7 7 7 7 7 8 7 7 6 5 4 5
7 8 8 8 8 8 8 8 9 9 9 8 8 8 9 9 8 8 8 8 7 7 7 7 6 5 5 5 5 6 6 6 6 6 7 7 7 8 7 5 5 5 4
9 9 9 9 9 8 9 9 9 9 9 8 8 8 9 9 8 8 8 8 8 7 7 6 5 5 4 5 5 5 5 5 6 6 6 6 7 8 8 8 7 7 7
10 10 9 9 10 9 9 9 9 9 8 8 8 8 8 9 9 8 8 8 8 7 7 6 5 5 4 4 4 5 4 5 5 5 5 4 4 5 5 5 5 6 7
10 10 9 10 9 8 8 9 9 8 8 8 8 8 8 9 9 8 8 8 7 6 6 6 5 4 3 4 4 4 3 3 3 4 5 4 4 4 4 4 4 4 4
9 9 9 9 9 8 8 8 8 8 8 8 8 8 8 9 9 9 8 8 7 6 6 6 5 4 4 3 3 3 3 2 3 3 4 4 4 5 5 5 5 4 3
8 9 9 9 8 8 8 8 8 8 8 9 8 8 8 8 9 8 8 7 7 6 6 5 5 4 4 3 3 3 2 2 2 2 2 4 4 5 5 5 5 5 4
9 9 9 8 8 8 8 8 8 9 9 9 9 8 8 8 8 8 7 7 6 6 5 5 4 4 4 4 3 3 2 2 2 2 2 2 3 4 5 5 4 5 4
9 9 8 8 8 8 8 9 9 9 9 9 8 8 8 7 6 7 7 6 6 5 5 5 5 4 4 4 4 4 4 4 2 2 2 1 2 3 4 3 3 4 3
9 8 9 9 8 8 8 9 9 9 8 8 8 8 7 7 6 6 6 6 5 4 4 4 4 4 4 4 5 5 5 5 3 2 2 2 1 1 0 1 2 2 2
8 8 9 9 9 9 8 9 9 8 7 8 8 7 6 6 6 5 4 4 4 4 4 4 4 4 4 3 3 3 3 3 2 1 1 2 2 2 2 1 1 1 1
8 8 8 9 10 9 9 9 8 8 8 7 7 6 6 6 5 5 5 5 5 5 5 4 4 4 4 5 6 4 3 2 2 1 1 1 1 1 1 1 1 1 1
8 8 9 9 9 9 9 9 8 7 7 6 6 5 5 5 4 5 5 6 6 8 8 8 7 5 6 8 7 6 5 5 3 2 1 1 1 1 1 1 1 1 1
Wind_Direction
7 7 4 6 6 8 6 6 6 5 3 355 346 339 335 331 328 325 327 323 312 303 296 295 286 273 256 252 247 246 220 210 195 199 201 202 204 217 233 229 214 196 192
6 7 5 8 7 5 1 0 360 358 358 351 340 325 313 310 315 320 317 317 312 304 293 284 279 277 267 252 242 236 230 217 210 207 200 205 203 204 218 223 221 219 206
360 1 1 2 4 3 358 352 350 350 352 349 344 338 328 322 323 319 307 305 305 299 289 278 270 265 259 250 242 234 234 226 221 226 221 211 210 185 191 212 215 217 220
358 359 357 356 357 356 354 350 348 348 350 348 343 338 325 316 313 308 301 299 297 296 291 281 273 264 256 254 249 240 238 233 226 230 240 249 221 203 190 195 206 213 226
354 354 352 350 350 351 352 349 347 350 350 346 340 328 321 312 307 303 300 299 294 293 295 286 274 265 259 258 259 258 244 233 233 228 228 225 229 228 217 207 196 202 214
351 351 350 349 349 351 352 351 347 349 348 345 339 329 321 318 311 306 299 295 292 288 291 290 276 265 259 253 252 253 251 245 238 234 226 219 214 213 215 219 208 210 207
350 350 348 347 347 348 349 349 347 344 344 341 337 328 320 313 305 302 295 293 290 286 286 284 278 266 259 256 250 248 249 249 242 236 234 231 229 221 218 218 215 218 215
344 344 343 341 342 343 344 347 344 342 340 338 332 326 324 313 305 301 298 290 287 284 281 276 274 268 257 253 249 244 243 244 244 240 237 233 230 225 213 214 208 208 215
334 335 336 339 339 339 341 342 339 338 337 332 328 324 323 319 310 302 296 290 287 289 284 274 270 266 255 248 246 243 241 239 238 238 238 236 223 221 218 213 211 212 213
328 330 333 336 337 336 334 335 336 335 332 332 327 320 319 316 311 303 297 296 293 292 288 279 272 265 255 246 241 243 239 237 236 234 233 237 231 219 216 214 219 225 223
323 326 329 332 333 335 334 333 334 334 332 330 325 319 318 317 312 308 302 297 293 289 285 277 272 263 254 246 239 240 238 234 234 233 231 234 234 223 218 217 216 220 219
322 321 324 327 331 333 333 332 330 330 328 325 321 319 317 316 313 311 307 301 294 287 285 278 267 261 253 247 240 239 238 233 232 231 229 232 232 227 219 217 216 215 214
323 321 323 325 327 328 329 329 328 327 326 324 321 321 321 319 316 311 307 304 299 292 288 282 269 262 252 247 243 238 238 236 234 232 228 228 224 226 217 216 216 214 210
320 320 322 321 323 324 325 325 324 325 324 322 320 319 321 318 314 312 309 307 304 294 286 282 271 265 258 250 243 236 237 238 239 238 234 231 225 226 219 215 214 211 211
322 322 322 323 320 321 322 321 321 323 322 320 319 319 320 319 315 315 315 313 309 304 294 287 277 268 260 255 251 239 237 237 238 238 237 236 231 232 230 219 210 206 211
321 320 324 325 322 320 318 318 319 321 320 318 316 319 320 320 319 318 317 315 313 309 303 295 283 272 265 271 270 260 241 238 237 238 238 234 227 227 226 222 221 218 214
320 322 325 321 319 318 317 316 314 315 315 315 316 319 321 319 320 319 318 316 314 310 305 299 288 276 277 279 275 277 263 247 243 239 234 233 227 219 215 208 217 228 232
321 320 319 317 317 316 315 313 313 312 314 315 316 319 320 319 320 320 320 317 313 310 307 306 296 285 286 292 289 289 286 273 262 250 236 227 227 217 212 209 217 227 232
317 316 316 314 316 316 317 314 313 314 314 315 315 317 317 316 318 318 317 315 313 313 313 306 304 297 289 286 294 306 295 287 281 267 247 232 228 211 209 207 212 219 225
322 321 319 318 318 319 317 312 313 315 314 314 313 312 312 311 312 314 314 314 314 312 314 309 307 305 301 304 304 309 296 299 294 282 260 240 235 223 219 216 210 215 221
321 322 320 320 319 321 319 313 313 314 315 314 311 310 311 311 311 312 315 317 319 318 320 321 320 318 317 317 315 317 311 299 296 289 272 243 230 238 235 234 224 211 207
324 324 322 321 323 324 321 315 313 316 316 314 311 311 312 314 313 315 317 318 318 320 325 328 329 333 334 341 341 336 325 319 296 290 292 277 226 243 239 232 200 182 189
322 323 321 320 324 327 323 316 316 318 316 314 313 314 315 316 316 316 317 317 318 319 324 328 329 333 337 342 349 342 337 329 316 310 328 339 31 30 73 107 141 160 173
322 324 323 322 325 327 325 320 320 320 314 313 315 317 318 321 324 322 319 318 318 319 322 325 326 328 330 332 333 332 339 342 333 335 358 3 47 52 42 40 63 66 124
321 322 321 321 322 325 325 325 325 322 317 315 315 316 319 321 325 327 326 322 318 320 318 318 317 320 322 330 333 329 329 325 319 328 326 346 36 55 57 62 60 59 78
319 321 321 321 322 326 326 328 328 324 320 318 320 320 321 321 323 325 330 337 334 337 337 338 334 330 335 338 341 346 347 348 348 348 9 22 26 22 43 62 64 58 57